Regional Weather Roundup
Issued by NWS

Home | Current Version | Previous Version | Graphics & Text | Print | Product List | Glossary On
Versions: 1 2 3 4 5 6 7 8 9 10 11 12 13 14 15 16 17 18 19 20 21 22 23 24 25 26 27 28 29 30 31 32 33 34 35 36 37 38 39 40 41 42 43 44 45 46 47 48 49 50
000
ASUS43 KMKX 200159
RWRWI

WISCONSIN REGIONAL WEATHER ROUNDUP
NATIONAL WEATHER SERVICE MILWAUKEE/SULLIVAN WI
900 PM CDT SAT MAY 19 2018

NOTE: "FAIR" INDICATES FEW OR NO CLOUDS BELOW 12,000 FEET WITH NO
SIGNIFICANT WEATHER AND/OR OBSTRUCTIONS TO VISIBILITY.

WIZ001-002-006>008-014>016-023>028-200300-
NORTHWEST WISCONSIN

CITY           SKY/WX    TMP DP  RH WIND       PRES   REMARKS
SUPERIOR ARPT  FAIR      44  38  79 NE3       30.17R
ASHLAND        FAIR      41  35  79 NE7       30.18R
HAYWARD        FAIR      46  38  73 NE10      30.14R
SIREN          FAIR      50  39  66 E6        30.13R
CUMBERLAND     FAIR      46  37  71 NE9       30.12R
RICE LAKE      CLOUDY    50  39  66 N12G17    30.13R
CHETEK         CLOUDY    49  40  70 N8        30.10R
LADYSMITH      CLOUDY    48  38  66 N13G23    30.13R
EAU CLAIRE     NOT AVBL
MENOMONIE      CLOUDY    51  39  64 N10G21    30.09R
NEW RICHMOND   CLOUDY    51  39  64 NE16G22   30.10R
OSCEOLA        CLOUDY    52  40  65 N8        30.15R
$$

WIZ003>005-009-010-017-018-200300-
NORTH CENTRAL WISCONSIN

CITY           SKY/WX    TMP DP  RH WIND       PRES   REMARKS
MANITOWISH WTR CLOUDY    42  37  83 NE10G23   30.12R
ARBOR VITAE    CLOUDY    43  38  82 N10G16    30.11R
WOODRUFF       CLOUDY    43  38  82 N10G16    30.11R
RHINELANDER    CLOUDY    43  40  89 NE10G17   30.10R
EAGLE RIVER    CLOUDY    41  38  91 N14G21    30.10R
LAND O LAKES   CLOUDY    41  39  93 N10G17    30.12R
PHILLIPS       CLOUDY    44  38  79 NE13G18   30.11R
TOMAHAWK       CLOUDY    42  38  83 N7        30.10R
MEDFORD        DRIZZLE   45  39  79 N16G23    30.06R
MERRILL        CLOUDY    45  40  83 NE14      30.09R
$$

WIZ029-030-035-036-043>047-200300-
CENTRAL WISCONSIN

CITY           SKY/WX    TMP DP  RH WIND       PRES   REMARKS
WAUSAU         CLOUDY    48  40  73 N15G21    30.05R
MOSINEE        CLOUDY    50  43  76 N15G25    30.05R
MARSHFIELD     CLOUDY    50  42  74 NE14G21   30.03R
STEVENS POINT  NOT AVBL
WAUPACA        CLOUDY    67  54  62 NE12G18   29.98R
WAUTOMA        FAIR      66  49  54 N12       29.95R
WISC RAPIDS    CLOUDY    57  45  64 N18       30.00R
CAMP DOUGLAS   CLOUDY    61  49  65 N10       29.98R
$$

WIZ011>013-019>022-031-037>040-048>050-200300-
NORTHEAST WISCONSIN

CITY           SKY/WX    TMP DP  RH WIND       PRES   REMARKS
ANTIGO         CLOUDY    44  40  86 N12       30.06R
SHAWANO        CLOUDY    56  44  64 N15       30.03R
OCONTO         CLOUDY    55  48  77 N12       30.00R
STURGEON BAY   CLOUDY    50  42  74 N14G25    30.03R
GREEN BAY      CLOUDY    58  51  78 NE16      30.01R
MANITOWOC      CLOUDY    49  47  93 N6        30.01R
APPLETON       CLOUDY    63  52  67 NE10      29.96R
CLINTONVILLE   CLOUDY    59  43  55 N14       30.01R
OSHKOSH        CLOUDY    62  56  80 E13G21    29.97R
$$

WIZ032>034-041-042-053>061-200300-
SOUTHWEST WISCONSIN

CITY           SKY/WX    TMP DP  RH WIND       PRES   REMARKS
LA CROSSE      CLOUDY    61  47  59 N17G24    29.99R
SPARTA         CLOUDY    61  48  62 N12G17    29.99R
VIROQUA        FAIR      63  53  68 N14       29.97R
BOSCOBEL       FAIR      74  62  66 VRB3      29.91R
PRAIRIE DU CHI HVY RAIN  65  63  90 W10       29.94R
PLATTEVILLE    MOCLDY    73  62  67 E8        29.91R
$$

WIZ056-057-062-063-064-067-068-200300-
SOUTH CENTRAL WISCONSIN

CITY           SKY/WX    TMP DP  RH WIND       PRES   REMARKS
REEDSBURG      LGT RAIN  67  64  89 CALM      29.92R
BARABOO/DELLS  HVY RAIN  70  61  73 SW12G17   29.91R
LONE ROCK      NOT AVBL
MINERAL POINT  FAIR      72  61  68 E5        29.92R
MADISON        MOCLDY    69  59  70 S7        29.91R
MIDDLETON      FAIR      70  60  70 SE5       29.91R
WATERTOWN      FAIR      64  61  91 CALM      29.92R
MONROE         FAIR      68  57  68 E7        29.92R
JANESVILLE     FAIR      64  59  82 SE3       29.92R
$$

WIZ051-052-058>065-066-070>072-200300-
SOUTHEAST WISCONSIN

CITY           SKY/WX    TMP DP  RH WIND       PRES   REMARKS
MILWAUKEE      MOCLDY    50  48  93 E5        29.96R
WAUKESHA       CLEAR     61  55  82 NE8       29.95R
MILWAUKEE/TIMM CLEAR     52  48  87 NE8       29.96R FOG
RACINE         FAIR      56  53  90 CALM      29.96R FOG
BURLINGTON     FAIR      60  57  88 CALM      29.94R
KENOSHA        FAIR      58  54  86 SE3       29.93R
FOND DU LAC    MOCLDY    62  55  77 E10       29.96R
SHEBOYGAN      CLOUDY    49  48  97 NE6       29.99R
WEST BEND      FAIR      55  54  94 E5        29.98R
JUNEAU         FAIR      67  59  76 S5        29.93R
$$

LSZ147-162-200300-
LAKE SUPERIOR

STATION/POSITION TIME  TEMP    WIND        PRES    WAVE
                       AIR SEA DIR/SP/G            HT/PER
                 (UTC) (F)     (DEG/KT/KT) (MB)    (FT/S)
W MID LAKE BUOY  0050   40 36   40/ 10/ 12 1021.4R   3/ 5
DEVILS ISLAND    0100   43     120/  9/ 10 1022.0R
SAXON HARBOR     0140   43      20/  4/  6 1021.0R
$$

LMZ867-665-643>646-200300-
LAKE MICHIGAN

STATION/POSITION TIME  TEMP    WIND        PRES    WAVE
                       AIR SEA DIR/SP/G            HT/PER
                 (UTC) (F)     (DEG/KT/KT) (MB)    (FT/S)
NORTHPORT PIER   0140   45                 1016.6R
KEWAUNEE LAKESHO 0130   47      30/  6/  9 1015.0R
SHEBOYGAN LAKESH 0100   47      20/  5/  6 1014.7R
PORT WASHINGTON  0140   49      70/  1/  2 1015.9R
MILWAUKEE LAKESH 0130   48      50/  7/  8   N/A
KENOSHA   LAKESH 0100   53                 1013.2
$$

TC  - TEMPERATURE IN CELSIUS
VSB - VISIBILITY IN STATUTE MILES
WCI - WIND CHILL INDEX
HX  - HEAT INDEX





USA.gov is the U.S. government's official web portal to all federal, state and local government web resources and services.